Location: Deer Lodge Site
(39.6809°N, 119.9392°W)
Time: 23:18:22
(UTC-08:00)

Amateur Radio Satellites - All Passes

Search period start: 28 November 2014 22:48
Search period end: 29 November 2014 22:48
Location: Deer Lodge Site, 39.6809°N, 119.9392°W

Satellite Date Start Highest point End Downlink Frequencies (MHz)
Time Altitude Azimuth
CUBEBUG 1 28 Nov 22:50:18 22:54:38 52° 260° (W) 22:58:59 437.445
AISAT 28 Nov 22:51:07 22:54:16 19° 266° (W) 22:57:27 437.250
POPSAT HIP 1 28 Nov 22:56:56 23:01:10 78° 102° (ESE) 23:05:23 437.405
HUMSAT D 28 Nov 23:06:32 23:08:12 12° 269° (W) 23:09:51 437.325/437.525
TIGRISAT 28 Nov 23:07:30 23:11:52 56° 286° (WNW) 23:16:20 435.000
RS-15 28 Nov 23:10:39 23:21:05 42° 43° (NE) 23:31:53 29.354- 29.394
DANDE 28 Nov 23:20:31 23:25:25 70° 81° (E) 23:32:04 436.750
AUBIESAT-1 28 Nov 23:22:29 23:25:42 21° 60° (ENE) 23:29:06 437.475
UNISAT 6 28 Nov 23:23:14 23:27:22 37° 289° (WNW) 23:31:35 437.425
BEESAT 28 Nov 23:26:57 23:29:51 16° 63° (ENE) 23:32:45 436.000
M-CUBED/EXP-1 PRIME 28 Nov 23:29:39 23:33:12 27° 62° (ENE) 23:37:01 437.505
POLYITAN 1 28 Nov 23:32:47 23:36:44 40° 288° (WNW) 23:40:41 437.675
QB50P2 28 Nov 23:33:28 23:37:25 39° 288° (WNW) 23:41:21 145.880/145.840
DUCHIFAT 1 28 Nov 23:37:22 23:41:13 36° 289° (WNW) 23:45:04 145.980
TISAT 1 28 Nov 23:40:51 23:45:02 55° 259° (W) 23:49:13 437.305
ANTELSAT 28 Nov 23:53:10 23:56:22 20° 293° (WNW) 23:59:36 437.575/2403.000
NANOSAT C BR1 28 Nov 23:57:51 00:01:06 22° 292° (WNW) 00:04:22 145.865
MaSat-1 28 Nov 23:58:27 00:00:44 52° 247° (WSW) 00:03:07 437.345
SPROUT 29 Nov 00:01:19 00:05:21 38° 262° (W) 00:09:23 437.525
BUGSAT 1 29 Nov 00:01:27 00:04:40 23° 292° (WNW) 00:07:51 437.445
QB50P1 29 Nov 00:08:38 00:11:25 17° 294° (WNW) 00:14:11 145.935-145.965
ITUPSAT 1 29 Nov 00:22:33 00:27:15 56° 73° (ENE) 00:31:58 437.325
CUSAT 1 29 Nov 00:23:40 00:28:11 29° 266° (W) 00:33:51 437.405
ISS 29 Nov 00:24:24 00:26:02 13° 347° (NNW) 00:27:40 145.825
Oscar 19 29 Nov 00:25:14 00:28:26 16° 92° (E) 00:31:37 437.125/150
SWISSCUBE 29 Nov 00:32:03 00:36:50 78° 75° (ENE) 00:41:40 437.505
KKS-1 29 Nov 00:37:02 00:39:46 16° 65° (ENE) 00:42:30 437.445
AUBIESAT-1 29 Nov 00:56:35 01:00:24 36° 259° (WSW) 01:04:34 437.475
SRMSAT 29 Nov 00:59:47 01:00:40 10° 179° (S) 01:01:34 437.500
BEESAT 29 Nov 01:02:31 01:07:13 56° 259° (W) 01:11:57 436.000
M-CUBED/EXP-1 PRIME 29 Nov 01:04:38 01:08:10 27° 261° (W) 01:11:59 437.505
DANDE 29 Nov 01:05:58 01:08:48 15° 269° (W) 01:12:01 436.750
RS-15 29 Nov 01:22:59 01:34:02 64° 246° (WSW) 01:45:34 29.354- 29.394
STARS 29 Nov 01:24:16 01:28:13 34° 70° (ENE) 01:32:11 437.465
YUBILEINY 29 Nov 01:24:41 01:32:50 45° 88° (E) 01:40:59 435.215
ITAMSAT 1 29 Nov 01:25:06 01:29:11 23° 94° (E) 01:33:13 435.822/435.867
ISS 29 Nov 02:02:46 02:03:50 11° 7° (N) 02:04:54 145.825
ITUPSAT 1 29 Nov 02:02:47 02:05:28 15° 268° (W) 02:08:10 437.325
Oscar 19 29 Nov 02:03:02 02:08:06 57° 287° (WNW) 02:13:10 437.125/150
KKS-1 29 Nov 02:11:44 02:16:01 47° 260° (W) 02:20:20 437.445
SWISSCUBE 29 Nov 02:14:39 02:15:14 10° 271° (W) 02:15:49 437.505
Gurwin Techsat 1B 29 Nov 02:16:22 02:21:25 42° 98° (E) 02:26:24 435.225
SO-50 29 Nov 02:32:04 02:36:29 62° 118° (ESE) 02:41:05 436.795
STARS 29 Nov 03:01:28 03:04:46 21° 266° (W) 03:08:04 437.465
PCSat 29 Nov 03:01:47 03:06:24 27° 50° (NE) 03:10:59 145.827
BEESAT 3 29 Nov 03:03:15 03:06:28 21° 47° (NE) 03:09:38 437.485
ITAMSAT 1 29 Nov 03:03:58 03:08:47 41° 290° (WNW) 03:13:35 435.822/435.867
BEESAT 2 29 Nov 03:21:19 03:24:57 27° 50° (NE) 03:28:32 435.950
YUBILEINY 29 Nov 03:21:36 03:29:40 39° 287° (WNW) 03:37:45 435.215
HORYU 2 29 Nov 03:22:32 03:27:03 86° 103° (ESE) 03:31:34 437.375
ISS 29 Nov 03:38:28 03:41:21 27° 27° (NNE) 03:44:12 145.825
MOZHAYETS 4 29 Nov 03:40:50 03:45:06 39° 71° (ENE) 03:49:24
RS-15 29 Nov 03:41:07 03:44:07 11° 265° (W) 03:47:09 29.354- 29.394
Gurwin Techsat 1B 29 Nov 03:56:55 04:01:06 24° 295° (WNW) 04:05:16 435.225
AO-7 29 Nov 04:02:48 04:11:03 58° 103° (ESE) 04:19:14 29.400- 29.500
AIST 2 29 Nov 04:11:08 04:15:15 42° 53° (NE) 04:19:17 435.215
JAS-2 29 Nov 04:13:01 04:18:17 24° 90° (E) 04:23:04 435.910
SO-50 29 Nov 04:14:21 04:17:29 18° 317° (NW) 04:20:41 436.795
BEESAT 3 29 Nov 04:40:55 04:44:51 40° 244° (WSW) 04:48:43 437.485
PCSat 29 Nov 04:44:51 04:49:58 44° 248° (WSW) 04:55:03 145.827
BEESAT 2 29 Nov 04:59:34 05:03:12 29° 247° (WSW) 05:06:47 435.950
O/OREOS (USA 219) 29 Nov 05:11:52 05:16:22 88° 293° (WNW) 05:20:51 437.305
CUTE-I 29 Nov 05:12:09 05:15:27 17° 92° (E) 05:18:44 437.470
PRISM 29 Nov 05:12:39 05:16:51 73° 75° (ENE) 05:21:05 437.425
ISS 29 Nov 05:14:58 05:18:02 37° 224° (SW) 05:21:06 145.825
MOZHAYETS 4 29 Nov 05:19:10 05:22:28 19° 267° (W) 05:25:47
CUBESAT XI-V 29 Nov 05:32:05 05:36:32 43° 72° (ENE) 05:41:00 437.345
AIST 1 29 Nov 05:45:38 05:49:39 35° 77° (ENE) 05:53:37
STRAND 1 29 Nov 05:49:40 05:54:45 66° 73° (ENE) 05:59:52 437.568
AIST 2 29 Nov 05:50:36 05:53:33 18° 250° (WSW) 05:56:27 435.215
AO-7 29 Nov 05:56:14 06:03:22 33° 301° (WNW) 06:10:31 29.400- 29.500
JAS-2 29 Nov 05:57:06 06:03:48 54° 290° (WNW) 06:09:42 435.910
Cubesat XI-IV 29 Nov 06:10:14 06:15:31 61° 101° (ESE) 06:20:45 437.490
CUTE-I 29 Nov 06:50:40 06:55:53 59° 288° (WNW) 07:01:04 437.470
CUBESAT XI-V 29 Nov 07:10:52 07:14:09 19° 267° (W) 07:17:26 437.345
GONETS M04 29 Nov 07:15:10 07:23:31 50° 89° (E) 07:31:55
AIST 1 29 Nov 07:24:05 07:27:00 18° 273° (W) 07:29:54
STRAND 1 29 Nov 07:31:45 07:34:22 14° 269° (W) 07:37:00 437.568
Cubesat XI-IV 29 Nov 07:51:40 07:55:05 18° 298° (WNW) 07:58:29 437.490
CUTE 1.7 + AOD 2 29 Nov 08:07:02 08:10:11 20° 94° (E) 08:13:19 437.475
GOMX 1 29 Nov 08:07:50 08:09:55 13° 92° (E) 08:12:01 467.674
HO-68 29 Nov 08:15:15 08:21:42 35° 97° (E) 08:28:06 435.675
TIGRISAT 29 Nov 08:33:04 08:33:49 10° 62° (ENE) 08:34:35 435.000
SEEDS 29 Nov 08:34:41 08:38:36 34° 97° (E) 08:42:31 437.485
AAUSAT CUBESAT 2 29 Nov 08:44:00 08:47:49 32° 97° (E) 08:51:38 437.432
DOVE 4 29 Nov 08:45:17 08:48:53 26° 96° (E) 08:52:35 437.250
UNISAT 6 29 Nov 08:46:53 08:49:26 16° 65° (ENE) 08:51:59 437.425
UKube-1 29 Nov 08:48:44 08:51:13 15° 93° (E) 08:53:41 .
POLYITAN 1 29 Nov 08:52:07 08:53:52 12° 64° (ENE) 08:55:36 437.675
QB50P2 29 Nov 08:52:33 08:54:20 13° 64° (ENE) 08:56:08 145.880/145.840
BRITE-PL 29 Nov 08:53:38 08:57:45 64° 101° (E) 09:02:01 437.365/2234.400
CINEMA 3 29 Nov 08:54:02 08:57:14 20° 95° (E) 09:00:31 145.822/145.860
DUCHIFAT 1 29 Nov 08:55:48 08:57:50 13° 64° (ENE) 08:59:52 145.980
Oscar 11 29 Nov 08:56:22 08:59:48 22° 95° (E) 09:03:14 145.826/435.025
COMPASS 1 29 Nov 09:01:39 09:05:53 60° 100° (E) 09:10:05 437.405
CANX-2 29 Nov 09:07:48 09:12:07 76° 284° (WNW) 09:16:24 2200.000
GONETS M04 29 Nov 09:12:42 09:20:32 35° 288° (WNW) 09:28:29
NANOSAT C BR1 29 Nov 09:14:30 09:17:44 21° 68° (ENE) 09:20:57 145.865
ANTELSAT 29 Nov 09:14:41 09:18:26 31° 70° (ENE) 09:22:13 437.575/2403.000
BUGSAT 1 29 Nov 09:16:07 09:19:04 19° 67° (ENE) 09:22:00 437.445
QB50P1 29 Nov 09:24:31 09:28:07 27° 69° (ENE) 09:31:43 145.935-145.965
DX 1 29 Nov 09:26:48 09:30:55 41° 99° (E) 09:35:00 434.975-435.025
UWE-3 29 Nov 09:32:10 09:35:55 29° 97° (E) 09:39:44 435.000/436.395/437.385
CUBEBUG 2 29 Nov 09:39:36 09:43:40 40° 99° (E) 09:47:50 437.445
CUTE 1.7 + AOD 2 29 Nov 09:42:18 09:46:11 34° 289° (WNW) 09:50:03 437.475
GOMX 1 29 Nov 09:44:16 09:48:17 46° 286° (WNW) 09:52:26 467.674
POPSAT HIP 1 29 Nov 09:49:14 09:53:22 52° 73° (ENE) 09:57:29 437.405
ZACube-1 29 Nov 09:58:29 10:02:38 48° 100° (E) 10:06:52 437.345
HO-68 29 Nov 10:02:46 10:09:27 44° 294° (WNW) 10:16:06 435.675
DELFI C3 29 Nov 10:05:18 10:09:26 67° 285° (WNW) 10:13:32 145.870
TIGRISAT 29 Nov 10:05:46 10:09:59 69° 258° (WSW) 10:14:14 435.000
SEEDS 29 Nov 10:11:06 10:14:12 20° 293° (WNW) 10:17:18 437.485
50 SAT 29 Nov 10:12:22 10:16:04 32° 97° (E) 10:19:46 437.505
VELOX 1 29 Nov 10:13:12 10:17:23 41° 99° (E) 10:21:33 145.980
AAUSAT CUBESAT 2 29 Nov 10:20:09 10:23:18 21° 292° (WNW) 10:26:26 437.432
UNISAT 6 29 Nov 10:21:48 10:25:52 44° 261° (W) 10:29:58 437.425
DOVE 4 29 Nov 10:23:10 10:26:35 24° 291° (WNW) 10:30:06 437.250
UKube-1 29 Nov 10:23:27 10:27:36 45° 288° (WNW) 10:31:43 .
POLYITAN 1 29 Nov 10:25:07 10:29:19 58° 259° (W) 10:33:31 437.675
QB50P2 29 Nov 10:25:35 10:29:46 58° 259° (W) 10:33:58 145.880/145.840
ESTCUBE 1 29 Nov 10:25:54 10:29:27 22° 94° (E) 10:32:57 437.505/2401.250
DUCHIFAT 1 29 Nov 10:29:06 10:33:15 53° 260° (W) 10:37:25 145.980
CINEMA 3 29 Nov 10:30:41 10:34:30 33° 289° (WNW) 10:38:26 145.822/145.860
Oscar 11 29 Nov 10:32:10 10:35:58 30° 290° (WNW) 10:39:47 145.826/435.025
FUNcube-1 29 Nov 10:32:24 10:36:39 69° 285° (WNW) 10:40:59 145.935
BRITE-PL 29 Nov 10:35:05 10:35:48 10° 297° (WNW) 10:36:31 437.365/2234.400
COMPASS 1 29 Nov 10:39:26 10:41:05 12° 296° (WNW) 10:42:44 437.405
CUBEBUG 1 29 Nov 10:40:42 10:44:31 29° 97° (E) 10:48:18 437.445
AISAT 29 Nov 10:41:41 10:46:07 89° 96° (E) 10:50:32 437.250
HUMSAT D 29 Nov 10:49:07 10:53:18 73° 284° (WNW) 10:57:31 437.325/437.525
NANOSAT C BR1 29 Nov 10:49:39 10:53:26 31° 263° (W) 10:57:13 145.865
BUGSAT 1 29 Nov 10:50:23 10:54:18 36° 262° (W) 10:58:13 437.445
ANTELSAT 29 Nov 10:52:05 10:55:17 21° 266° (W) 10:58:31 437.575/2403.000
QB50P1 29 Nov 11:00:32 11:03:58 24° 265° (W) 11:07:25 145.935-145.965
DX 1 29 Nov 11:03:58 11:06:50 18° 295° (WNW) 11:09:42 434.975-435.025
SO-50 29 Nov 11:04:18 11:09:00 46° 53° (NE) 11:13:43 436.795
UWE-3 29 Nov 11:08:56 11:12:21 24° 291° (WNW) 11:15:49 435.000/436.395/437.385
CUBEBUG 2 29 Nov 11:17:16 11:20:05 17° 293° (WNW) 11:22:57 437.445
TISAT 1 29 Nov 11:27:26 11:30:51 24° 95° (E) 11:34:14 437.305
POPSAT HIP 1 29 Nov 11:27:44 11:29:34 12° 269° (W) 11:31:23 437.405
ZACube-1 29 Nov 11:36:15 11:38:38 15° 295° (WNW) 11:41:02 437.345
YUBILEINY 29 Nov 11:36:34 11:42:41 20° 64° (ENE) 11:48:44 435.215
Oscar 19 29 Nov 11:41:15 11:45:10 23° 65° (ENE) 11:49:06 437.125/150
50 SAT 29 Nov 11:48:15 11:51:08 19° 293° (WNW) 11:54:01 437.505
SPROUT 29 Nov 11:48:57 11:52:57 37° 98° (E) 11:56:55 437.525
VELOX 1 29 Nov 11:50:41 11:53:39 18° 295° (WNW) 11:56:36 145.980
CUSAT 1 29 Nov 11:54:50 11:57:02 24° 94° (E) 11:59:14 437.405
ESTCUBE 1 29 Nov 12:02:18 12:06:22 33° 290° (WNW) 12:10:24 437.505/2401.250
CUBEBUG 1 29 Nov 12:17:18 12:20:45 23° 292° (WNW) 12:24:10 437.445
ITUPSAT 1 29 Nov 12:25:38 12:28:28 16° 92° (E) 12:31:17 437.325
VERMONT LUNAR 29 Nov 12:29:12 12:32:27 32° 154° (SSE) 12:35:42 437.305
SWISSCUBE 29 Nov 12:34:21 12:38:00 21° 94° (E) 12:41:36 437.505
PHONESAT 2.4 29 Nov 12:34:23 12:37:31 26° 151° (SSE) 12:40:39 2401.200-2431.200
DANDE 29 Nov 12:37:39 12:40:18 68° 280° (W) 12:42:55 436.750
AUBIESAT-1 29 Nov 12:40:26 12:44:11 22° 98° (E) 12:47:48 437.475
ITAMSAT 1 29 Nov 12:42:10 12:46:47 33° 68° (ENE) 12:51:25 435.822/435.867
SO-50 29 Nov 12:45:34 12:49:15 22° 249° (WSW) 12:52:56 436.795
M-CUBED/EXP-1 PRIME 29 Nov 12:48:06 12:52:21 29° 100° (E) 12:56:26 437.505
TISAT 1 29 Nov 13:03:06 13:06:38 27° 291° (WNW) 13:10:10 437.305
BEESAT 29 Nov 13:03:54 13:08:24 40° 98° (E) 13:12:52 436.000
AO-7 29 Nov 13:12:57 13:17:28 16° 49° (NE) 13:22:00 29.400- 29.500
Oscar 19 29 Nov 13:19:24 13:24:13 42° 261° (W) 13:29:05 437.125/150
MaSat-1 29 Nov 13:25:15 13:27:32 21° 110° (ESE) 13:29:42 437.345
SPROUT 29 Nov 13:25:50 13:28:45 18° 294° (WNW) 13:31:41 437.525
YUBILEINY 29 Nov 13:31:49 13:40:32 82° 265° (W) 13:49:12 435.215
Gurwin Techsat 1B 29 Nov 13:36:34 13:41:47 62° 73° (ENE) 13:47:02 435.225
RS-15 29 Nov 13:37:00 13:44:40 22° 101° (E) 13:52:15 29.354- 29.394
O/OREOS (USA 219) 29 Nov 13:44:40 13:47:24 16° 55° (NE) 13:50:07 437.305
ITUPSAT 1 29 Nov 14:01:59 14:06:40 53° 288° (WNW) 14:11:18 437.325
KKS-1 29 Nov 14:03:59 14:08:02 34° 98° (E) 14:12:04 437.445
VERMONT LUNAR 29 Nov 14:07:06 14:10:43 89° 351° (N) 14:14:21 437.305
SWISSCUBE 29 Nov 14:11:32 14:15:58 38° 290° (WNW) 14:20:22 437.505
PHONESAT 2.4 29 Nov 14:12:20 14:16:02 82° 167° (SSE) 14:19:45 2401.200-2431.200
AUBIESAT-1 29 Nov 14:14:40 14:19:17 42° 294° (WNW) 14:23:43 437.475
HORYU 2 29 Nov 14:20:16 14:24:40 71° 75° (ENE) 14:29:06 437.375
ITAMSAT 1 29 Nov 14:21:46 14:26:15 29° 264° (W) 14:30:45 435.822/435.867
M-CUBED/EXP-1 PRIME 29 Nov 14:22:57 14:27:19 33° 296° (WNW) 14:31:34 437.505
JAS-2 29 Nov 14:25:39 14:29:15 14° 54° (NE) 14:32:50 435.910
BEESAT 29 Nov 14:42:22 14:45:58 22° 294° (WNW) 14:49:34 436.000
STARS 29 Nov 14:51:04 14:55:29 78° 103° (ESE) 14:59:53 437.465
AO-7 29 Nov 15:00:35 15:08:48 71° 69° (ENE) 15:17:05 29.400- 29.500
MaSat-1 29 Nov 15:00:37 15:01:54 12° 302° (WNW) 15:03:08 437.345
Gurwin Techsat 1B 29 Nov 15:19:01 15:22:09 16° 269° (W) 15:25:17 435.225
O/OREOS (USA 219) 29 Nov 15:22:46 15:27:07 52° 253° (WSW) 15:31:28 437.305
YUBILEINY 29 Nov 15:31:42 15:35:51 15° 284° (WNW) 15:40:00 435.215
KKS-1 29 Nov 15:41:06 15:44:28 21° 293° (WNW) 15:47:49 437.445
RS-15 29 Nov 15:44:31 15:55:31 86° 301° (WNW) 16:06:32 29.354- 29.394
VERMONT LUNAR 29 Nov 15:45:38 15:49:16 82° 7° (N) 15:52:54 437.305
PHONESAT 2.4 29 Nov 15:51:10 15:54:53 78° 4° (N) 15:58:37 2401.200-2431.200
Cubesat XI-IV 29 Nov 15:55:28 15:57:32 12° 59° (ENE) 15:59:36 437.490
JAS-2 29 Nov 16:05:12 16:12:49 66° 72° (ENE) 16:20:34 435.910
STARS 29 Nov 16:30:56 16:31:19 10° 299° (WNW) 16:31:42 437.465
CUTE-I 29 Nov 16:32:55 16:37:19 27° 66° (ENE) 16:41:43 437.470
AO-7 29 Nov 16:55:54 17:02:12 24° 266° (W) 17:08:35 29.400- 29.500
PRISM 29 Nov 16:59:19 17:00:35 11° 91° (E) 17:01:51 437.425
MOZHAYETS 4 29 Nov 17:13:42 17:18:22 76° 284° (WNW) 17:23:00
VERMONT LUNAR 29 Nov 17:24:12 17:27:37 41° 203° (SSW) 17:31:02 437.305
GONETS M04 29 Nov 17:27:06 17:33:50 24° 66° (ENE) 17:40:29
PHONESAT 2.4 29 Nov 17:30:01 17:33:38 50° 201° (SSW) 17:37:14 2401.200-2431.200
Cubesat XI-IV 29 Nov 17:31:27 17:36:50 89° 256° (WSW) 17:42:14 437.490
CUBESAT XI-V 29 Nov 17:32:20 17:33:42 11° 89° (E) 17:35:05 437.345
PCSat 29 Nov 17:43:07 17:47:35 27° 108° (ESE) 17:52:04 145.827
JAS-2 29 Nov 17:52:01 17:58:14 26° 269° (W) 18:04:34 435.910
RS-15 29 Nov 18:00:31 18:09:37 29° 328° (NNW) 18:18:50 29.354- 29.394
STRAND 1 29 Nov 18:01:52 18:05:54 23° 94° (E) 18:09:54 437.568
AIST 2 29 Nov 18:12:09 18:13:08 11° 107° (ESE) 18:14:06 435.215
CUTE-I 29 Nov 18:12:12 18:17:10 39° 262° (W) 18:22:10 437.470
AIST 1 29 Nov 18:14:59 18:18:24 23° 88° (E) 18:21:50
PRISM 29 Nov 18:32:20 18:36:30 57° 286° (WNW) 18:40:36 437.425
BEESAT 3 29 Nov 18:34:51 18:38:45 45° 116° (ESE) 18:42:44 437.485
HO-68 29 Nov 18:43:48 18:49:26 26° 59° (ENE) 18:55:04 435.675
BEESAT 2 29 Nov 18:53:37 18:57:41 67° 119° (ESE) 19:01:51 435.950
CUTE 1.7 + AOD 2 29 Nov 19:00:47 19:02:53 14° 64° (ENE) 19:04:59 437.475
CUBESAT XI-V 29 Nov 19:06:58 19:11:37 67° 285° (WNW) 19:16:11 437.345
PHONESAT 2.4 29 Nov 19:10:08 19:11:53 13° 215° (SW) 19:13:39 2401.200-2431.200
GOMX 1 29 Nov 19:15:44 19:18:25 16° 66° (ENE) 19:21:00 467.674
GONETS M04 29 Nov 19:22:43 19:31:31 74° 266° (W) 19:40:13
PCSat 29 Nov 19:25:40 19:30:46 41° 305° (NW) 19:35:54 145.827
SEEDS 29 Nov 19:27:01 19:30:17 23° 68° (ENE) 19:33:35 437.485
AAUSAT CUBESAT 2 29 Nov 19:35:22 19:38:29 21° 68° (ENE) 19:41:37 437.432
STRAND 1 29 Nov 19:40:28 19:45:11 39° 290° (WNW) 19:49:53 437.568
UKube-1 29 Nov 19:44:13 19:46:12 13° 63° (ENE) 19:48:10 .
AIST 2 29 Nov 19:46:56 19:51:08 69° 303° (WNW) 19:55:26 435.215
DOVE 4 29 Nov 19:50:50 19:54:32 26° 70° (ENE) 19:58:07 437.250
Oscar 11 29 Nov 19:51:23 19:54:08 17° 66° (ENE) 19:56:53 145.826/435.025
AIST 1 29 Nov 19:52:04 19:55:54 29° 284° (WNW) 19:59:45
COMPASS 1 29 Nov 19:52:51 19:56:40 36° 72° (ENE) 20:00:32 437.405
CINEMA 3 29 Nov 19:56:13 19:59:04 18° 67° (ENE) 20:01:52 145.822/145.860
CANX-2 29 Nov 20:00:04 20:04:15 69° 75° (ENE) 20:08:28 2200.000
BRITE-PL 29 Nov 20:03:31 20:08:23 70° 76° (ENE) 20:12:54 437.365/2234.400
BEESAT 3 29 Nov 20:14:15 20:17:12 19° 314° (NW) 20:20:12 437.485
RS-15 29 Nov 20:20:20 20:27:17 18° 3° (N) 20:34:20 29.354- 29.394
ISS 29 Nov 20:21:52 20:22:37 11° 128° (SE) 20:23:21 145.825
DX 1 29 Nov 20:21:53 20:25:48 33° 70° (ENE) 20:29:44 434.975-435.025
HO-68 29 Nov 20:29:28 20:36:34 64° 257° (WSW) 20:43:44 435.675
UWE-3 29 Nov 20:29:40 20:32:52 22° 68° (ENE) 20:36:03 435.000/436.395/437.385
BEESAT 2 29 Nov 20:34:06 20:36:26 14° 317° (NW) 20:38:47 435.950
CUTE 1.7 + AOD 2 29 Nov 20:34:16 20:38:22 51° 260° (W) 20:42:30 437.475
CUBEBUG 2 29 Nov 20:37:54 20:41:36 30° 71° (ENE) 20:45:15 437.445
GOMX 1 29 Nov 20:51:41 20:56:13 49° 260° (W) 21:00:30 467.674
DELFI C3 29 Nov 20:53:08 20:57:10 68° 75° (ENE) 21:01:15 145.870
ZACube-1 29 Nov 20:54:24 20:58:11 34° 71° (ENE) 21:01:57 437.345
50 SAT 29 Nov 21:01:20 21:04:15 20° 68° (ENE) 21:07:11 437.505
SEEDS 29 Nov 21:02:21 21:05:58 28° 264° (W) 21:09:38 437.485
AAUSAT CUBESAT 2 29 Nov 21:10:18 21:13:58 30° 263° (W) 21:17:42 437.432
VELOX 1 29 Nov 21:10:29 21:14:32 35° 70° (ENE) 21:18:35 145.980
UKube-1 29 Nov 21:17:33 21:21:51 59° 259° (W) 21:26:10 .
GONETS M04 29 Nov 21:23:25 21:26:39 13° 286° (WNW) 21:29:52
ESTCUBE 1 29 Nov 21:25:28 21:28:45 20° 66° (ENE) 21:32:03 437.505/2401.250
Oscar 11 29 Nov 21:25:53 21:29:57 42° 262° (W) 21:34:04 145.826/435.025
FUNcube-1 29 Nov 21:27:45 21:31:56 84° 77° (ENE) 21:36:06 145.935
DOVE 4 29 Nov 21:28:28 21:32:15 26° 264° (W) 21:35:54 437.250
COMPASS 1 29 Nov 21:29:48 21:32:32 17° 267° (W) 21:35:18 437.405
CINEMA 3 29 Nov 21:32:00 21:36:01 38° 262° (W) 21:39:58 145.822/145.860
CUBEBUG 1 29 Nov 21:36:40 21:40:13 24° 68° (ENE) 21:43:47 437.445
AISAT 29 Nov 21:39:00 21:43:27 74° 75° (ENE) 21:47:55 437.250
HUMSAT D 29 Nov 21:40:39 21:44:45 71° 76° (ENE) 21:48:51 437.325/437.525
BRITE-PL 29 Nov 21:46:01 21:47:13 11° 269° (W) 21:48:24 437.365/2234.400
ISS 29 Nov 21:55:31 21:58:48 77° 323° (NW) 22:02:05 145.825
TIGRISAT 29 Nov 21:58:40 22:02:25 26° 96° (E) 22:06:13 435.000
DX 1 29 Nov 21:58:47 22:02:05 21° 265° (W) 22:05:24 434.975-435.025
UWE-3 29 Nov 22:05:36 22:09:16 29° 263° (W) 22:12:55 435.000/436.395/437.385
POLYITAN 1 29 Nov 22:12:29 22:15:54 24° 95° (E) 22:19:19 437.675
QB50P2 29 Nov 22:12:43 22:16:09 24° 95° (E) 22:19:34 145.880/145.840
UNISAT 6 29 Nov 22:14:26 22:18:40 38° 98° (E) 22:22:57 437.425
CUBEBUG 2 29 Nov 22:15:12 22:18:20 20° 266° (W) 22:21:28 437.445
DUCHIFAT 1 29 Nov 22:15:46 22:19:16 25° 96° (E) 22:22:44 145.980
TISAT 1 29 Nov 22:20:10 22:23:01 18° 66° (ENE) 22:25:52 437.305
CUSAT 1 29 Nov 22:31:02 22:35:53 37° 78° (ENE) 22:42:04 437.405
ZACube-1 29 Nov 22:31:47 22:34:39 18° 266° (W) 22:37:32 437.345
BUGSAT 1 29 Nov 22:33:57 22:37:37 32° 97° (E) 22:41:14 437.445
NANOSAT C BR1 29 Nov 22:35:32 22:39:34 42° 99° (E) 22:43:34 145.865
50 SAT 29 Nov 22:35:50 22:39:22 30° 263° (W) 22:42:56 437.505
